Flag for U.S.A. Weather past 2 weeks in Alexandria, Virginia, U.S.A.

Now
65 °F

Passing clouds.


Feels Like: 65 °F
Forecast: 53 / 75 °F
Wind: 5 mph from East

Location: Reagan National Airport

Current Time: Sep 14, 2014 at 10:23:02 PM

Latest Report: Sep 14, 2014 at 9:52 PM


Visibility: 10 mi

Pressure: 30.22 "Hg

Humidity: 59%

Dew point: 50 °F

Location of AlexandriaLocation

Historic Weather in Alexandria — Graph

°F

Alexandria temperature yesterday

Maximum temperature yesterday: 72 °F (at 9:52 AM)
Minimum temperature yesterday: 64 °F (at 11:52 PM)
Average temperature yesterday: 68 °F

Past Weeks' High & Low Weather Summary

 TemperatureHumidityPressure
High96 °F (Aug 31, 2:52 PM)85% (Aug 31, 1:52 AM)30.33 "Hg (Aug 31, 1:52 AM)
Low56 °F (Sep 14, 5:52 AM)31% (Sep 7, 4:52 PM)29.86 "Hg (Sep 2, 6:52 PM)
Average78 °F64%30.08 "Hg
* Reported Aug 30 8:52 PM — Sep 14 8:52 PM, Alexandria, Weather by CustomWeather, © 2014

Note: Actual official high and low records may vary slightly from our data, if they occured in-between our weather recording intervals... More about our weather records

Advertising

Alexandria weather history for previous 24 hours

 ConditionsComfort  
Time TempWeatherWind HumidityBarometerVisibility
8:52 PM
Sep 14
67 °FPassing clouds.3 mph51%30.23 "Hg10 mi
7:52 PM67 °FPartly sunny.5 mph47%30.22 "Hg10 mi
6:52 PM69 °FPartly sunny.5 mph45%30.22 "Hg10 mi
5:52 PM70 °FPartly sunny.7 mph42%30.22 "Hg10 mi
4:52 PM73 °FPartly sunny.9 mph40%30.22 "Hg10 mi
3:52 PM72 °FPartly sunny.8 mph41%30.23 "Hg10 mi
2:52 PM74 °FBroken clouds.5 mph38%30.25 "Hg10 mi
1:52 PM71 °FBroken clouds.6 mph39%30.27 "Hg10 mi
12:52 PM70 °FPartly sunny.6 mph42%30.29 "Hg10 mi
11:52 AM69 °FBroken clouds.7 mph44%30.31 "Hg10 mi
10:52 AM67 °FBroken clouds.9 mph45%30.32 "Hg10 mi
9:52 AM64 °FPartly sunny.9 mph50%30.33 "Hg10 mi
8:52 AM62 °FScattered clouds.7 mph60%30.33 "Hg10 mi
7:52 AM59 °FScattered clouds.8 mph67%30.32 "Hg10 mi
6:52 AM56 °FPassing clouds.6 mph72%30.30 "Hg10 mi
5:52 AM56 °FPassing clouds.6 mph75%30.28 "Hg10 mi
4:52 AM58 °FClear.8 mph72%30.26 "Hg10 mi
3:52 AM59 °FClear.9 mph69%30.25 "Hg10 mi
2:52 AM60 °FClear.9 mph69%30.24 "Hg10 mi
1:52 AM62 °FClear.12 mph70%30.24 "Hg10 mi
12:52 AM63 °FClear.12 mph73%30.22 "Hg10 mi
11:52 PM
Sep 13
64 °FPassing clouds.9 mph73%30.22 "Hg10 mi
10:52 PM65 °FPassing clouds.8 mph70%30.22 "Hg10 mi
Weather by CustomWeather, © 2014

See weather overviewHow to use our weather pages